Torna al catalogo

RASSVET-3 17

AttivoPO
NORAD 100083·PAYLOAD·🇷🇺 Russia

Lanciato Jul 19, 2026 da Plesetsk Cosmodrome

Loading…

Prossimi Passaggi (prossime 24 ore)

TLE

AggiornatoSource: Space-Track

Epoca: Sep 14, 2026, 13:15 UTC

1 A0083U 26165A   26257.55239849  .00138546  63186-5  29699-3 0  9992
2 A0083  82.2980 166.4866 0019950 198.0757 161.9812 15.98091732  9024

Traccia RASSVET-3 17 in tempo reale con AllMySat

Download on the App Store